Weather History for KSUS - May, 2012

Change the Weather History Date:

Thursday, May 10, 2012

  Actual Average Record
Temperature  
Mean Temperature 60 °F -  
Max Temperature 75 °F 73 °F 88 °F (2005)
Min Temperature 46 °F 51 °F 39 °F (1997)
Degree Days  
Heating Degree Days 4    
Growing Degree Days 10 (Base 50)    
Moisture  
Dew Point 47 °F    
Average Humidity 65    
Maximum Humidity 96    
Minimum Humidity 33    
Precipitation  
Precipitation 0.00 in - - ()
Sea Level Pressure  
Sea Level Pressure 29.97 in    
Wind  
Wind Speed 1 mph (SW)    
Max Wind Speed 6 mph    
Max Gust Speed -    
Visibility 10 miles    
Events      
Averages and records for this station are not official NWS values.
T = Trace of Precipitation, MM = Missing Value Source: NWS Daily Summary

Daily Weather History Graph

Daily Weather History Graph

Search for Another Location

Airport or City:

Trip Planner

Search our weather history database for the weather conditions in past years. The results will help you decide how hot, cold, wet, or windy it might be!

Date:

Astronomy

May. 10, 2012 Rise Set
Actual Time 5:54 AM CDT 8:03 PM CDT
Civil Twilight 5:25 AM CDT 8:33 PM CDT
Nautical Twilight 4:49 AM CDT 9:09 PM CDT
Astronomical Twilight 4:10 AM CDT 9:48 PM CDT
Moon 12:02 AM CDT (5/10) 10:19 AM CDT (5/10)
Length of Visible Light 15h 07m
Length of Day
14h 08m
Waning Gibbous, 73% of the Moon is Illuminated
May 10
Waning Gibbous
May 12
Last Quarter
May 20
New
May 28
First Quarter
Jun 4
Full

Hourly Weather History & Observations

Time (CDT) Temp. Dew Point Humidity Pressure Visibility Wind Dir Wind Speed Gust Speed Precip Events Conditions
12:54 AM 51.1 °F 48.9 °F 92% 29.96 in 10.0 mi Calm Calm - N/A   Clear
1:54 AM 50.0 °F 48.0 °F 93% 29.96 in 10.0 mi Calm Calm - N/A   Clear
2:54 AM 48.9 °F 46.9 °F 93% 29.95 in 10.0 mi Calm Calm - N/A   Clear
3:54 AM 48.9 °F 46.9 °F 93% 29.95 in 10.0 mi Calm Calm - N/A   Clear
4:09 AM 48.2 °F 46.4 °F 93% 29.96 in 9.0 mi Calm Calm - N/A   Partly Cloudy
4:54 AM 48.0 °F 46.9 °F 96% 29.96 in 10.0 mi SW 3.5 mph - N/A   Clear
5:54 AM 46.9 °F 45.0 °F 93% 29.97 in 10.0 mi WSW 3.5 mph - N/A   Clear
6:54 AM 50.0 °F 46.9 °F 89% 30.00 in 10.0 mi Calm Calm - N/A   Partly Cloudy
7:54 AM 55.0 °F 51.1 °F 86% 30.01 in 10.0 mi Calm Calm - N/A   Partly Cloudy
8:54 AM 60.1 °F 52.0 °F 75% 30.01 in 10.0 mi Calm Calm - N/A   Partly Cloudy
9:54 AM 66.0 °F 52.0 °F 60% 30.01 in 10.0 mi Calm Calm - N/A   Partly Cloudy
10:54 AM 68.0 °F 44.1 °F 42% 30.01 in 10.0 mi Calm Calm - N/A   Scattered Clouds
11:54 AM 71.1 °F 45.0 °F 39% 29.99 in 10.0 mi Calm Calm - N/A   Scattered Clouds
12:54 PM 72.0 °F 45.0 °F 38% 29.98 in 10.0 mi Calm Calm - N/A   Scattered Clouds
1:54 PM 72.0 °F 44.1 °F 37% 29.98 in 10.0 mi Calm Calm - N/A   Scattered Clouds
2:54 PM 73.0 °F 43.0 °F 34% 29.96 in 10.0 mi NW 4.6 mph - N/A   Scattered Clouds
3:54 PM 75.0 °F 45.0 °F 34% 29.95 in 10.0 mi NNW 4.6 mph - N/A   Clear
4:54 PM 73.9 °F 43.0 °F 33% 29.94 in 10.0 mi Calm Calm - N/A   Partly Cloudy
5:54 PM 73.4 °F 42.8 °F 33% 29.94 in 10.0 mi Calm Calm - N/A   Partly Cloudy
6:54 PM 72.0 °F 46.0 °F 40% 29.94 in 10.0 mi SSW 4.6 mph - N/A   Partly Cloudy
7:54 PM 64.9 °F 51.1 °F 61% 29.95 in 10.0 mi SSE 3.5 mph - N/A   Clear
8:54 PM 61.0 °F 51.1 °F 70% 29.96 in 10.0 mi Calm Calm - N/A   Clear
9:54 PM 59.0 °F 50.0 °F 72% 29.99 in 10.0 mi Calm Calm - N/A   Clear
10:54 PM 59.0 °F 48.9 °F 69% 29.99 in 10.0 mi Calm Calm - N/A   Clear
11:54 PM 61.0 °F 46.9 °F 60% - 10.0 mi SE 5.8 mph - N/A   Clear